AO-95
1 43770U 18099N 19107.91472809 -.00000074 00000-0 -14749-5 0 9999
2 43770 097.7491 180.5610 0014845 174.2836 185.8556 14.94720410020196
RANGE-B
1 43772U 18099Q 19107.90786727 .00000105 00000-0 14913-4 0 9992
2 43772 097.7544 180.6550 0014796 161.7641 198.4113 14.94815150020185
RANGE-A
1 43773U 18099R 19107.77534947 -.00000167 00000-0 -10021-4 0 9999
2 43773 097.7440 180.3513 0014080 161.9819 198.1904 14.94769759020168
MOVE-II
1 43780U 18099Y 19107.89325990 .00000680 00000-0 67375-4 0 9998
2 43780 097.7481 180.5598 0013986 171.6855 188.4600 14.94987031020179
SNUSat 2
1 43782U 18099AA 19108.75841113 .00000491 00000-0 50119-4 0 9994
2 43782 97.7487 181.4485 0013472 158.1711 202.0086 14.95012507 20318
SnugLite
1 43784U 18099AC 19107.81466696 .00000733 00000-0 72032-4 0 9998
2 43784 097.7454 180.4695 0015582 170.0325 190.1208 14.95086377020188
ITASat 1
1 43786U 18099AE 19108.75009645 .00000672 00000-0 66432-4 0 9990
2 43786 97.7505 181.4926 0015760 166.0001 194.1659 14.95099336 20328
EAGLET 1
1 43790U 18099AJ 19107.84552053 -.00000198 00000-0 -12663-4 0 9992
2 43790 097.7497 180.6617 0013665 173.7487 186.3907 14.95474080019887
ESEO
1 43792U 18099AL 19107.77628293 -.00000331 00000-0 -24652-4 0 9996
2 43792 097.7477 180.5695 0013464 170.8106 189.3364 14.95486415019936
CSIM
1 43793U 18099AM 19107.76946731 .00000259 00000-0 28459-4 0 9992
2 43793 097.7438 180.4846 0013607 168.3254 191.8285 14.95618771019905
Astrocast 0.1
1 43798U 18099AS 19107.82410678 .00000488 00000-0 48959-4 0 9991
2 43798 097.7486 180.6655 0013243 153.6763 206.5133 14.95710194020170
JO-97
1 43803U 18099AX 19107.93693097 .00000564 00000-0 56457-4 0 9995
2 43803 097.7462 180.6338 0015663 169.7085 190.4459 14.95218272020196
Suomi 100
1 43804U 18099AY 19108.73955165 .00000620 00000-0 61559-4 0 9994
2 43804 97.7461 181.4261 0015799 167.1927 192.9698 14.95221105 20323
Al Farabi 2
1 43805U 18099AZ 19108.73697476 .00000634 00000-0 62697-4 0 9992
2 43805 97.7462 181.4306 0015870 167.4526 192.7093 14.95264155 20322
PWSat 2
1 43814U 18099BJ 19107.93367039 .00009140 00000-0 78207-3 0 9996
2 43814 097.7723 181.0021 0015080 159.6986 200.4867 14.97736891019606
CHOMPTT
1 43855U 18104G 19107.97392646 .00000992 00000-0 41175-4 0 9995
2 43855 085.0336 097.2388 0017600 174.8083 185.3340 15.22259198018630
ISAT
1 43879U 18111D 19107.92117885 -.00000165 00000-0 -95445-5 0 9998
2 43879 097.7220 016.8108 0011957 227.1583 132.8634 14.95940241016705
UWE-4
1 43880U 18111E 19108.70546687 .00000510 00000-0 50361-4 0 9992
2 43880 97.7231 17.6400 0011000 224.0906 135.9439 14.96186680 14836
Sparrow
1 43881U 18111F 19108.76901879 .00000650 00000-0 62727-4 0 9991
2 43881 97.7235 17.7157 0011161 222.3855 137.6505 14.96232274 14837
Lume 1
1 43908U 18111AJ 19108.68231368 .00000968 00000-0 42404-4 0 9993
2 43908 97.2943 15.5862 0020933 202.6679 157.3636 15.24199444 17154
FO-98
1 43933U 19003B 19108.72672986 .00000762 00000-0 36745-4 0 9995
2 43933 97.2881 168.2374 0016178 302.3230 177.2493 15.21535764 13787
FO-99
1 43937U 19003F 19108.74919262 .00001379 00000-0 60489-4 0 9999
2 43937 97.2835 168.4434 0022789 289.0104 189.0269 15.23411242 13806
Delphini 1
1 44030U 98067PW 19107.75599761 .00009632 00000-0 14603-3 0 9995
2 44030 051.6381 300.6684 0004275 270.3543 089.6959 15.55339268011900
MYSat 1
1 44045U 18092F 19108.70927001 .00002494 00000-0 84294-4 0 9992
2 44045 51.6421 306.1538 0012511 218.7925 141.2148 15.34632434 9878
AstroCast 0.2
1 44083U 19018F 19108.70303054 .00000547 00000-0 27571-4 0 9991
2 44083 97.4748 169.1494 0012988 216.4570 143.5782 15.21304879 2649
AISTechSat 3
1 44103U 19018AB 19108.75506082 .00000879 00000-0 40950-4 0 9999
2 44103 97.4628 169.1881 0012287 236.8040 123.2019 15.22506194 2642
AISat 1
1 44104U 19018AC 19108.73120956 .00000700 00000-0 25510-4 0 9998
2 44104 97.5158 169.4419 0057645 283.0690 76.4120 15.30348507 2681
/EX
1
0
Diwata-2 has been designated Philippines-OSCAR 101 (PO-101) as per ANS
Special Bulletin
101.01, December 11, 2019. (per Drew Glasbrenner, KO4MA AMSAT VP Operations
/OSCAR Number Administrator)
1
0
SB KEPS @ AMSAT $ORB19101.N
2Line Orbital Elements 19101.AMSAT
HR AMSAT ORBITAL ELEMENTS FOR AMATEUR SATELLITES IN NASA FORMAT
FROM WA5QGD FORT WORTH,TX April 11, 2019
BID: ORB19101.N
DECODE 2-LINE ELSETS WITH THE FOLLOWING KEY:
1 AAAAAU 00 0 0 BBBBB.BBBBBBBB .CCCCCCCC 00000-0 00000-0 0 DDDZ
2 AAAAA EEE.EEEE FFF.FFFF GGGGGGG HHH.HHHH III.IIII JJ.JJJJJJJJKKKKKZ
KEY: A-CATALOGNUM B-EPOCHTIME C-DECAY D-ELSETNUM E-INCLINATION F-RAAN
G-ECCENTRICITY H-ARGPERIGEE I-MNANOM J-MNMOTION K-ORBITNUM Z-CHECKSUM
TO ALL RADIO AMATEURS BT
AO-07
1 07530U 74089B 19101.87230394 -.00000027 00000-0 11075-3 0 9998
2 07530 101.7371 70.2484 0012465 116.9235 297.5306 12.53637467 32020
UO-11
1 14781U 84021B 19100.94966915 .00000063 00000-0 13886-4 0 9995
2 14781 097.6179 128.8945 0008548 175.3201 184.8095 14.83075222867575
LO-19
1 20442U 90005G 19101.37808274 .00000006 00000-0 18444-4 0 9998
2 20442 98.6429 43.5149 0011726 356.7265 3.3840 14.32921590526590
HUBBLE
1 20580U 90037B 19101.14699074 .00000564 00000-0 23511-4 0 9997
2 20580 28.4697 305.1808 0002867 105.8635 184.9380 15.09203371390522
MET-2/21
1 22782U 93055A 19101.42057046 .00000082 00000-0 60207-4 0 9992
2 22782 82.5516 217.2381 0022343 13.4515 51.2339 13.83818167293426
AO-27
1 22825U 93061C 19100.93245322 -.00000002 00000-0 17170-4 0 9992
2 22825 098.8997 088.0148 0008084 192.1427 167.9561 14.30055160331856
IO-26
1 22826U 93061D 19101.78954374 .00000001 00000-0 18092-4 0 9993
2 22826 98.8938 88.8911 0008882 178.6801 181.4405 14.30388471332447
FO-29
1 24278U 96046B 19101.22644704 -.00000017 00000-0 16545-4 0 9993
2 24278 98.5270 263.9582 0351180 57.6950 305.7697 13.53090038118549
NOAA-15
1 25338U 98030A 19101.56156424 .00000023 00000-0 28422-4 0 9993
2 25338 98.7529 122.9305 0011581 82.6832 277.5663 14.25901551 87543
GO-32
1 25397U 98043D 19101.79833376 -.00000005 00000-0 17168-4 0 9991
2 25397 98.6833 42.7861 0000688 172.6816 187.4373 14.23663231 78218
ISS
1 25544U 98067A 19101.88265046 .00003489 00000-0 63327-4 0 9990
2 25544 51.6418 330.8130 0001869 170.3903 8.7375 15.52531342164958
NO-44
1 26931U 01043C 19101.61376483 -.00000032 00000-0 19477-4 0 9997
2 26931 67.0513 179.3540 0005802 277.7269 82.3173 14.30537821915237
SO-50
1 27607U 02058C 19101.16153397 .00000056 00000-0 28599-4 0 9992
2 27607 64.5540 259.1151 0082406 269.5719 89.5941 14.75534247876921
CO-55
1 27844U 03031E 19101.54974493 .00000050 00000-0 42073-4 0 9994
2 27844 98.6864 110.7754 0009006 223.0845 136.9629 14.22169293818600
CO-57
1 27848U 03031J 19100.95950899 .00000033 00000-0 34857-4 0 9998
2 27848 098.6943 110.6784 0008732 237.2787 122.7549 14.21765493818349
RS-22
1 27939U 03042A 19101.89870355 .00000088 00000-0 24295-4 0 9998
2 27939 98.0288 239.0803 0011377 282.6983 77.2954 14.66767941830601
NOAA-18
1 28654U 05018A 19101.55943469 .00000078 00000-0 67207-4 0 9997
2 28654 99.1047 147.4795 0014295 13.8019 346.3540 14.12415139715905
CO-58
1 28895U 05043F 19101.62400361 .00000175 00000-0 42456-4 0 9996
2 28895 97.9478 246.7302 0016361 202.1328 157.9171 14.63647151717528
Falconsat-3
1 30776U 07006E 19101.50809182 .00003340 00000-0 94728-4 0 9995
2 30776 35.4342 165.7414 0003343 224.7523 135.2934 15.35883333670194
